Regional Weather Roundup
Issued by NWS

Home | Current Version | Previous Version | Text Only | Print | Product List | Glossary On
Versions: 1 2 3 4 5 6 7 8 9 10 11 12 13 14 15 16 17 18 19 20 21 22 23 24 25 26 27 28 29 30 31 32 33 34 35 36 37 38 39 40 41 42 43 44 45 46 47 48 49 50
000
ASUS43 KLMK 180210
RWRKY
KENTUCKY REGIONAL WEATHER ROUNDUP
NATIONAL WEATHER SERVICE LOUISVILLE KY
1000 PM EDT THU AUG 17 2017

NOTE "FAIR" INDICATES FEW OR NO CLOUDS BELOW 12,000 FEET
WITH NO SIGNIFICANT WEATHER AND/OR OBSTRUCTIONS TO VISIBILITY.

KYZ001>023-026-027-061>063-070>075-180300-
WESTERN AND SOUTH CENTRAL KENTUCKY

CITY           SKY/WX    TMP DP  RH WIND       PRES   REMARKS
PADUCAH        CLOUDY    77  71  82 SW3       29.89S
HENDERSON      PTCLDY    76  71  85 SW5       29.89R
OWENSBORO      CLOUDY    77  74  90 SW6       29.89R
HOPKINSVILLE   MOCLDY    77  76  94 SW8       29.91R
BOWLING GREEN  CLOUDY    79  77  94 W6        29.92S
GLASGOW        CLOUDY    80  71  75 SW5       29.93R THUNDER
$$

KYZ024-025-028>034-038-045-046-053-180300-
NORTH CENTRAL KENTUCKY

CITY           SKY/WX    TMP DP  RH WIND       PRES   REMARKS
LOUISVILLE/SDF MOCLDY    77  74  90 S7        29.88S
LOUISVILLE/LOU MOCLDY    75  75 100 S3        29.88F
FORT KNOX      CLOUDY    75  74  96 SW7       29.89S
$$

KYZ035>037-039>044-047>052-055>060-089>105-180300-
NORTHEAST KENTUCKY

CITY           SKY/WX    TMP DP  RH WIND       PRES   REMARKS
LEXINGTON      CLOUDY    74  71  91 S6        29.94S
COVINGTON      CLOUDY    74  74 100 S6        29.89S
FRANKFORT      CLOUDY    74  71  91 S7        29.91R
$$

KYZ054-064>069-076>088-106>120-180300-
SOUTHEAST KENTUCKY

CITY           SKY/WX    TMP DP  RH WIND       PRES   REMARKS
JACKSON        CLEAR     79  71  76 CALM      29.97S
LONDON         CLEAR     79  70  74 SW3       29.98R
SOMERSET       CLOUDY    79  70  73 S3        29.97R
MIDDLESBORO    CLEAR     76  75  96 CALM      30.00S
MONTICELLO     CLEAR     74  72  93 VRB6      29.98R
$$





USA.gov is the U.S. government's official web portal to all federal, state and local government web resources and services.